Main page
Satellite images Climate Cyclones Lightning AirportsFAQ Languages Contact Newsletter About
Weather : Europe Africa North America South America Asia Australia-Oceania Others

bangkok-th, Bangkok-Suvarnabhumi, Suvarnabhumi Airport

48455

latitude: , longitude: Thailand, elevation: 13-40-52N m


METAR: VTBS 180200Z 23009KT 200V260 9999 FEW020 SCT040 29/23 Q1003 NOSIG